Pine River, MN

6:58 AM CDT on June 24, 2017 (GMT -0500)
Pine River Regional

Weather History for KPWC - August, 2012

Change the Weather History Date:

Friday, August 3, 2012

  Actual Average Record
Temperature  
Mean Temperature 68 °F -  
Max Temperature 80 °F 76 °F 87 °F (2005)
Min Temperature 57 °F 53 °F 44 °F (2013)
Cooling Degree Days 4    
Growing Degree Days 18 (Base 50)    
Moisture  
Dew Point 62 °F    
Average Humidity 81    
Maximum Humidity 100    
Minimum Humidity 54    
Precipitation  
Precipitation 0.00 in - - ()
Sea Level Pressure  
Sea Level Pressure 29.89 in    
Wind  
Wind Speed 5 mph (ESE)    
Max Wind Speed 18 mph    
Max Gust Speed 25 mph    
Visibility 9 miles    
Events Rain , Thunderstorm    
Averages and records for this station are not official NWS values.
T = Trace of Precipitation, MM = Missing Value Source: NWS Daily Summary

Daily Weather History Graph

Daily Weather History Graph

Search for Another Location

Airport or City:

Trip Planner

Search our weather history database for the weather conditions in past years. The results will help you decide how hot, cold, wet, or windy it might be!

Date:

Astronomy

Aug. 03, 2012 Rise Set
Actual Time 6:00 AM CDT 8:45 PM CDT
Civil Twilight 5:26 AM CDT 9:20 PM CDT
Nautical Twilight 4:41 AM CDT 10:04 PM CDT
Astronomical Twilight 3:49 AM CDT 10:55 PM CDT
Moon 9:11 PM CDT (8/3) 7:55 AM CDT (8/3)
Length of Visible Light 15h 54m
Length of Day
14h 44m
Full, 97% of the Moon is Illuminated
Aug 3
Full
Aug 9
Last Quarter
Aug 17
New
Aug 24
First Quarter
Aug 31
Full

Hourly Weather History & Observations

Time (CDT) Temp. Heat Index Dew Point Humidity Pressure Visibility Wind Dir Wind Speed Gust Speed Precip Events Conditions
12:13 AM 60.8 °F - 57.2 °F 88% 29.93 in 7.0 mi Calm Calm - N/A   Clear
12:32 AM 60.8 °F - 57.2 °F 88% 29.93 in 10.0 mi Calm Calm - N/A   Clear
1:13 AM 60.8 °F - 57.2 °F 88% 29.94 in 10.0 mi Calm Calm - N/A   Clear
1:32 AM 60.8 °F - 57.2 °F 88% 29.94 in 10.0 mi Calm Calm - N/A   Mostly Cloudy
1:53 AM 59.0 °F - 57.2 °F 94% 29.93 in 10.0 mi Calm Calm - N/A   Scattered Clouds
2:13 AM 57.2 °F - 55.4 °F 94% 29.94 in 10.0 mi Calm Calm - N/A   Scattered Clouds
2:33 AM 59.0 °F - 57.2 °F 94% 29.93 in 10.0 mi Calm Calm - N/A   Scattered Clouds
2:53 AM 60.8 °F - 57.2 °F 88% 29.92 in 10.0 mi Calm Calm - N/A   Mostly Cloudy
3:12 AM 60.8 °F - 59.0 °F 94% 29.92 in 10.0 mi Calm Calm - N/A   Mostly Cloudy
3:33 AM 62.6 °F - 60.8 °F 94% 29.93 in 10.0 mi Calm Calm - N/A   Overcast
3:53 AM 64.4 °F - 60.8 °F 88% 29.98 in 10.0 mi NW 13.8 mph - N/A   Overcast
4:33 AM 66.2 °F - 62.6 °F 88% 29.97 in 10.0 mi Calm Calm - N/A Rain Rain
4:53 AM 64.4 °F - 62.6 °F 94% 29.96 in 7.0 mi Calm Calm - N/A Rain Rain
5:12 AM 62.6 °F - 62.6 °F 100% 29.96 in 10.0 mi Calm Calm - N/A Rain Light Rain
5:33 AM 62.6 °F - 62.6 °F 100% 29.94 in 10.0 mi SSE 5.8 mph - N/A   Scattered Clouds
5:53 AM 64.4 °F - 62.6 °F 94% 29.94 in 10.0 mi SSE 4.6 mph - N/A   Mostly Cloudy
6:13 AM 64.4 °F - 62.6 °F 94% 29.93 in 10.0 mi SSE 4.6 mph - N/A   Overcast
6:32 AM 64.4 °F - 62.6 °F 94% 29.93 in 10.0 mi Calm Calm - N/A Rain Light Rain
6:53 AM 64.4 °F - 62.6 °F 94% 29.94 in 10.0 mi Calm Calm - N/A Rain Light Rain
7:13 AM 64.4 °F - 62.6 °F 94% 29.92 in 10.0 mi ESE 4.6 mph - N/A Rain Light Rain
7:53 AM 64.4 °F - 62.6 °F 94% 29.94 in 10.0 mi SE 4.6 mph - N/A   Mostly Cloudy
8:12 AM 66.2 °F - 64.4 °F 94% 29.94 in 10.0 mi NNE 3.5 mph - N/A   Scattered Clouds
8:33 AM 64.4 °F - 62.6 °F 94% 29.95 in 10.0 mi NNE 5.8 mph - N/A   Mostly Cloudy
8:53 AM 64.4 °F - 62.6 °F 94% 30.00 in 7.0 mi North 9.2 mph - N/A Rain Rain
9:12 AM 64.4 °F - 62.6 °F 94% 29.99 in 7.0 mi NNE 15.0 mph 20.7 mph N/A Rain , Thunderstorm Light Thunderstorms and Rain
9:33 AM 62.6 °F - 60.8 °F 94% 30.00 in 4.0 mi NNE 10.4 mph - N/A Rain Light Rain
9:53 AM 62.6 °F - 60.8 °F 94% 29.99 in 10.0 mi NE 5.8 mph - N/A   Light Drizzle
10:13 AM 64.4 °F - 62.6 °F 94% 29.98 in 10.0 mi NE 4.6 mph - N/A   Scattered Clouds
10:33 AM 64.4 °F - 62.6 °F 94% 29.98 in 10.0 mi ENE 8.1 mph - N/A   Clear
10:53 AM 66.2 °F - 64.4 °F 94% 29.97 in 10.0 mi East 8.1 mph - N/A   Clear
11:13 AM 66.2 °F - 64.4 °F 94% 29.97 in 10.0 mi East 8.1 mph - N/A   Clear
11:33 AM 68.0 °F - 62.6 °F 83% 29.96 in 10.0 mi East 9.2 mph - N/A   Clear
11:53 AM 69.8 °F - 62.6 °F 78% 29.95 in 10.0 mi East 9.2 mph - N/A   Clear
12:13 PM 71.6 °F - 64.4 °F 78% 29.95 in 10.0 mi ESE 12.7 mph 17.3 mph N/A   Clear
12:33 PM 73.4 °F - 64.4 °F 73% 29.94 in 10.0 mi ESE 6.9 mph - N/A   Clear
12:53 PM 73.4 °F - 62.6 °F 69% 29.93 in 10.0 mi ESE 11.5 mph 19.6 mph N/A   Clear
1:13 PM 75.2 °F - 62.6 °F 65% 29.93 in 10.0 mi ESE 12.7 mph - N/A   Clear
1:33 PM 75.2 °F - 62.6 °F 65% 29.92 in 10.0 mi SE 10.4 mph 18.4 mph N/A   Clear
1:53 PM 77.0 °F - 62.6 °F 61% 29.91 in 10.0 mi SE 15.0 mph 19.6 mph N/A   Clear
2:13 PM 78.8 °F - 62.6 °F 57% 29.91 in 10.0 mi SE 13.8 mph 18.4 mph N/A   Clear
2:33 PM 78.8 °F - 62.6 °F 57% 29.90 in 10.0 mi SSE 15.0 mph 18.4 mph N/A   Clear
2:53 PM 78.8 °F - 62.6 °F 57% 29.89 in 10.0 mi SE 16.1 mph 21.9 mph N/A   Clear
3:13 PM 78.8 °F - 62.6 °F 57% 29.88 in 10.0 mi North - - N/A   Clear
3:33 PM 80.6 °F 81.8 °F 62.6 °F 54% 29.87 in 10.0 mi SE 12.7 mph 19.6 mph N/A   Clear
3:52 PM 80.6 °F 81.8 °F 62.6 °F 54% 29.87 in 10.0 mi SE 12.7 mph 21.9 mph N/A   Clear
4:13 PM 80.6 °F 82.3 °F 64.4 °F 58% 29.86 in 10.0 mi SE 12.7 mph 17.3 mph N/A   Clear
4:32 PM 80.6 °F 82.3 °F 64.4 °F 58% 29.85 in 10.0 mi SE 12.7 mph 20.7 mph N/A   Clear
4:53 PM 80.6 °F 82.3 °F 64.4 °F 58% 29.85 in 10.0 mi SE 15.0 mph 20.7 mph N/A   Clear
5:13 PM 80.6 °F 82.3 °F 64.4 °F 58% 29.84 in 10.0 mi SE 13.8 mph 21.9 mph N/A   Clear
5:32 PM 80.6 °F 82.3 °F 64.4 °F 58% 29.84 in 10.0 mi SE 13.8 mph 21.9 mph N/A   Clear
5:53 PM 80.6 °F 82.3 °F 64.4 °F 58% 29.83 in 10.0 mi SE 13.8 mph 18.4 mph N/A   Clear
6:13 PM 78.8 °F - 66.2 °F 65% 29.82 in 10.0 mi SE 8.1 mph - N/A   Clear
6:32 PM 78.8 °F - 64.4 °F 61% 29.80 in 10.0 mi SE 12.7 mph - N/A   Clear
6:53 PM 77.0 °F - 64.4 °F 65% 29.78 in 10.0 mi SE 11.5 mph - N/A   Clear
7:13 PM 77.0 °F - 64.4 °F 65% 29.78 in 10.0 mi SE 12.7 mph - N/A   Clear
7:32 PM 75.2 °F - 64.4 °F 69% 29.78 in 10.0 mi SE 8.1 mph 16.1 mph N/A   Clear
7:53 PM 75.2 °F - 66.2 °F 73% 29.80 in 10.0 mi SE 6.9 mph - N/A   Scattered Clouds
8:12 PM 75.2 °F - 66.2 °F 73% 29.78 in 10.0 mi ESE 8.1 mph - N/A   Scattered Clouds
8:33 PM 75.2 °F - 66.2 °F 73% 29.76 in 10.0 mi SE 10.4 mph - N/A   Scattered Clouds
8:52 PM 75.2 °F - 66.2 °F 73% 29.76 in 10.0 mi SE 6.9 mph - N/A Rain , Thunderstorm Light Thunderstorms and Rain
9:13 PM 75.2 °F - 66.2 °F 73% 29.79 in 10.0 mi SSE 3.5 mph - N/A Thunderstorm Thunderstorm
9:33 PM 73.4 °F - 66.2 °F 78% 29.81 in 10.0 mi NW 6.9 mph - N/A Rain , Thunderstorm Light Thunderstorms and Rain
9:52 PM 64.4 °F - 62.6 °F 94% 29.85 in 2.0 mi WNW 15.0 mph 25.3 mph N/A Rain , Thunderstorm Heavy Thunderstorms and Rain
10:13 PM 62.6 °F - 60.8 °F 94% 29.86 in 2.0 mi West 8.1 mph 19.6 mph N/A Rain , Thunderstorm Heavy Thunderstorms and Rain
10:33 PM 62.6 °F - 60.8 °F 94% 29.87 in 10.0 mi SSW 6.9 mph - N/A Rain , Thunderstorm Light Thunderstorms and Rain
10:52 PM 62.6 °F - 60.8 °F 94% 29.84 in 4.0 mi Calm Calm - N/A Rain , Thunderstorm Heavy Thunderstorms and Rain
11:13 PM 62.6 °F - 60.8 °F 94% 29.78 in 7.0 mi ESE 12.7 mph - N/A Rain , Thunderstorm Heavy Thunderstorms and Rain
11:33 PM 62.6 °F - 62.6 °F 100% 29.74 in 10.0 mi SE 18.4 mph 23.0 mph N/A Rain , Thunderstorm Light Thunderstorms and Rain
11:52 PM 62.6 °F - 62.6 °F 100% 29.73 in 10.0 mi ESE 10.4 mph 16.1 mph N/A Rain , Thunderstorm Light Thunderstorms and Rain